This demonstration page uses our WeatherBlox Daily Observations layout. Learn more.

Left ArrowRight Arrow

36.17497, -115.13722

Hourly Observations for April 1, 2021

Temp ( °F °C ) Dew Point ( °F °C ) Humidity (%) Winds ( mph kmh ) Pressure ( in mb ) Visibility ( mi km ) Precip ( " mm )
12:53 am 00:53 Clear 60 15.6 9 -12.8 13 13 N N/A 30.16 1022 10 16.0934 N/A
1:53 am 01:53 Clear 53 11.7 12 -11.1 19 19 N N/A 30.16 1021 10 16.0934 N/A
2:53 am 02:53 Clear 52 11.1 10 -12.2 18 18 W 6 9 30.14 1021 10 16.0934 N/A
3:53 am 03:53 Clear 50 10 12 -11.1 22 22 WNW 7 11 30.12 1020 10 16.0934 N/A
4:53 am 04:53 Clear 51 10.6 11 -11.7 20 20 NW 6 9 30.11 1020 10 16.0934 N/A
5:53 am 05:53 Clear 50 10 12 -11.1 22 22 NNW 5 7 30.11 1020 10 16.0934 N/A
6:53 am 06:53 Sunny 50 10 14 -10 24 24 NNW 3 6 30.12 1020 10 16.0934 N/A
7:53 am 07:53 Sunny 54 12.2 16 -8.9 22 22 NW 5 7 30.14 1021 10 16.0934 N/A
8:53 am 08:53 Sunny 62 16.7 10 -12.2 13 13 N N/A 30.13 1020 10 16.0934 N/A
9:53 am 09:53 Sunny 68 20 9 -12.8 10 10 N N/A 30.11 1020 10 16.0934 N/A
10:53 am 10:53 Sunny 70 21.1 5 -15 8 8 N N/A 30.1 1019 10 16.0934 N/A
11:53 am 11:53 Sunny 73 22.8 6 -14.4 7 7 E 6 9 30.06 1018 10 16.0934 N/A
12:53 pm 12:53 Sunny 76 24.4 5 -15 6 6 VRB 3 6 30.02 1017 10 16.0934 N/A
1:53 pm 13:53 Sunny 78 25.6 2 -16.7 5 5 ESE 13 20 30 1016 10 16.0934 N/A
2:53 pm 14:53 Mostly Sunny 77 25 3 -16.1 5 5 ESE 6 9 29.96 1015 10 16.0934 N/A
3:53 pm 15:53 Sunny 78 25.6 3 -16.1 5 5 VRB 5 7 29.94 1014 10 16.0934 N/A
4:53 pm 16:53 Sunny 78 25.6 3 -16.1 5 5 ESE 7 11 29.92 1013 10 16.0934 N/A
5:53 pm 17:53 Sunny 77 25 3 -16.1 5 5 S 3 6 29.91 1013 10 16.0934 N/A
6:53 pm 18:53 Sunny 77 25 3 -16.1 5 5 N N/A 29.9 1013 10 16.0934 N/A
7:53 pm 19:53 Clear 75 23.9 7 -13.9 7 7 N N/A 29.91 1013 10 16.0934 N/A
8:53 pm 20:53 Clear 70 21.1 11 -11.7 10 10 NW 6 9 29.91 1013 10 16.0934 N/A
9:53 pm 21:53 Clear 68 20 13 -10.6 12 12 W 5 7 29.91 1013 10 16.0934 N/A
10:53 pm 22:53 Clear 67 19.4 15 -9.4 13 13 NW 5 7 29.92 1013 10 16.0934 N/A
11:53 pm 23:53 Clear 66 18.9 15 -9.4 14 14 WNW 6 9 29.91 1013 10 16.0934 N/A

Powered by AerisWeather